contact:dominique.lefevre@mio.osupytheas.fr, maurice.libes@osupytheas.fr, didier.mallarino@osupytheas.fr
Project:EMSO http://www.emso-fr.org/EMSO-France
Depth: 2436.0 m
Title:EMSO Ligure Ouest : Data MII capteur AQUADOPP
Date,Latitude,Longitude,X_East,Y_North,Z_Up,Amplitude_X,Amplitude_Y,Amplitude_Z,Batterie,SoundSpeed,Heading,Pitch,Roll,Pressure,TIS,Speed,Direction
, degrees North, degrees East, m.s-1, m.s-1,m.s-1, 1, 1, 1, Volt, m.s-1, degree, degree, degree, dbar, degree_C, m.s-1, degree
2021-12-09T00:04:03,42.805,6.029,-0.014,-0.004,0.001,99.0,99.0,99.0,13.3,1505.2,327.7,-0.7,1.8,2470.657,13.29,0.014,254.1
2021-12-09T00:07:03,42.805,6.029,-0.001,-0.001,0.018,99.0,100.0,99.0,13.3,1505.2,329.5,-0.8,1.8,2470.673,13.29,0.001,225.0
2021-12-09T00:10:03,42.805,6.029,-0.01,0.017,-0.01,100.0,99.0,99.0,13.4,1505.2,326.7,-0.7,1.8,2470.695,13.29,0.019,329.5
2021-12-09T00:13:03,42.805,6.029,-0.014,-0.006,-0.01,100.0,100.0,100.0,13.4,1505.2,325.0,-0.8,1.8,2470.696,13.29,0.015,246.8
2021-12-09T00:16:03,42.805,6.029,-0.029,0.006,-0.013,101.0,101.0,99.0,13.3,1505.2,326.3,-0.8,1.8,2470.664,13.29,0.029,281.7
2021-12-09T00:19:03,42.805,6.029,-0.013,-0.007,-0.024,100.0,100.0,99.0,13.3,1505.2,331.8,-0.7,1.8,2470.678,13.29,0.014,241.7
2021-12-09T00:22:03,42.805,6.029,-0.011,0.006,-0.014,99.0,101.0,99.0,13.4,1505.2,331.8,-0.7,1.8,2470.673,13.29,0.012,298.6
2021-12-09T00:25:03,42.805,6.029,-0.009,0.001,0.004,99.0,100.0,99.0,13.4,1505.2,328.1,-0.8,1.8,2470.671,13.29,0.009,276.3
2021-12-09T00:28:03,42.805,6.029,0.0,0.005,0.003,100.0,101.0,99.0,13.3,1505.2,327.1,-0.7,1.8,2470.691,13.29,0.005,0.0
2021-12-09T00:31:03,42.805,6.029,-0.021,0.01,-0.003,100.0,99.0,100.0,13.4,1505.2,329.6,-0.7,1.8,2470.671,13.29,0.023,295.5
2021-12-09T00:34:03,42.805,6.029,-0.009,0.001,-0.013,99.0,101.0,99.0,13.4,1505.2,325.0,-0.8,1.8,2470.668,13.29,0.009,276.3
2021-12-09T00:37:03,42.805,6.029,0.0,-0.019,-0.033,101.0,102.0,98.0,13.3,1505.2,330.6,-0.8,1.8,2470.695,13.29,0.019,180.0
2021-12-09T00:40:03,42.805,6.029,-0.02,0.01,-0.023,99.0,101.0,100.0,13.4,1505.2,329.7,-0.8,1.8,2470.656,13.29,0.022,296.6
2021-12-09T00:43:03,42.805,6.029,-0.031,-0.016,-0.049,98.0,102.0,98.0,13.4,1505.2,326.0,-0.7,1.8,2470.686,13.29,0.034,242.7
2021-12-09T00:46:03,42.805,6.029,-0.015,0.003,-0.004,99.0,99.0,99.0,13.4,1505.2,331.8,-0.7,1.8,2470.703,13.29,0.015,281.3
2021-12-09T00:49:03,42.805,6.029,0.014,-0.006,0.013,97.0,100.0,100.0,13.4,1505.2,327.5,-0.7,1.9,2470.657,13.29,0.015,113.2
2021-12-09T00:52:03,42.805,6.029,-0.008,-0.004,-0.033,100.0,101.0,98.0,13.3,1505.2,331.1,-0.7,1.8,2470.673,13.29,0.008,243.4
2021-12-09T00:55:03,42.805,6.029,-0.002,0.005,-0.025,99.0,100.0,100.0,13.4,1505.2,326.3,-0.7,1.8,2470.681,13.29,0.005,338.2
2021-12-09T00:58:03,42.805,6.029,-0.01,0.021,0.0,99.0,100.0,100.0,13.4,1505.2,329.8,-0.7,1.8,2470.633,13.29,0.023,334.5
2021-12-09T01:04:03,42.805,6.029,-0.021,-0.009,-0.054,103.0,101.0,100.0,13.4,1505.2,330.9,-0.7,1.8,2470.675,13.28,0.022,246.8
2021-12-09T01:07:03,42.805,6.029,-0.001,0.017,0.016,100.0,100.0,99.0,13.4,1505.2,331.9,-0.7,1.8,2470.633,13.28,0.017,356.6
2021-12-09T01:10:03,42.805,6.029,-0.006,0.0,-0.023,99.0,100.0,99.0,13.4,1505.2,326.9,-0.7,1.8,2470.634,13.28,0.006,270.0
2021-12-09T01:13:03,42.805,6.029,-0.005,0.006,0.028,99.0,100.0,101.0,13.4,1505.2,324.4,-0.8,1.8,2470.627,13.28,0.007,320.2
2021-12-09T01:16:03,42.805,6.029,-0.005,0.006,-0.014,99.0,100.0,99.0,13.4,1505.2,329.6,-0.8,1.8,2470.628,13.28,0.007,320.2
2021-12-09T01:19:03,42.805,6.029,0.001,-0.01,-0.021,99.0,100.0,99.0,13.4,1505.2,326.5,-0.8,1.8,2470.622,13.28,0.01,174.3
2021-12-09T01:22:03,42.805,6.029,0.0,-0.009,-0.019,100.0,98.0,99.0,13.4,1505.2,328.1,-0.7,1.8,2470.601,13.28,0.009,180.0
2021-12-09T01:25:03,42.805,6.029,0.006,-0.008,-0.019,101.0,100.0,98.0,13.4,1505.2,328.3,-0.7,1.8,2470.601,13.28,0.01,143.1
2021-12-09T01:28:03,42.805,6.029,-0.017,-0.004,-0.052,99.0,100.0,99.0,13.4,1505.2,329.8,-0.7,1.9,2470.563,13.28,0.017,256.8
2021-12-09T01:31:03,42.805,6.029,0.0,-0.004,-0.014,100.0,98.0,99.0,13.3,1505.2,330.9,-0.7,1.8,2470.553,13.28,0.004,180.0
2021-12-09T01:34:03,42.805,6.029,0.015,-0.009,-0.019,99.0,102.0,99.0,13.4,1505.2,324.8,-0.8,1.8,2470.58,13.28,0.017,121.0
2021-12-09T01:37:03,42.805,6.029,-0.007,0.0,0.015,97.0,103.0,99.0,13.4,1505.2,327.3,-0.7,1.8,2470.568,13.28,0.007,270.0
2021-12-09T01:40:03,42.805,6.029,-0.01,-0.013,-0.022,102.0,99.0,99.0,13.4,1505.2,330.3,-0.7,1.8,2470.526,13.28,0.016,217.6
2021-12-09T01:43:03,42.805,6.029,-0.029,0.013,-0.009,100.0,99.0,99.0,13.4,1505.2,331.3,-0.7,1.8,2470.497,13.28,0.031,294.1
2021-12-09T01:46:03,42.805,6.029,0.02,-0.009,0.004,98.0,102.0,99.0,13.3,1505.2,326.6,-0.8,1.8,2470.525,13.28,0.021,114.2
2021-12-09T01:49:03,42.805,6.029,0.007,-0.002,-0.014,99.0,101.0,98.0,13.4,1505.2,326.9,-0.8,1.8,2470.513,13.28,0.007,105.9
2021-12-09T01:52:03,42.805,6.029,-0.009,-0.027,-0.04,99.0,99.0,99.0,13.4,1505.2,326.8,-0.8,1.8,2470.543,13.28,0.028,198.4
2021-12-09T01:55:03,42.805,6.029,0.008,-0.002,0.002,101.0,100.0,98.0,13.4,1505.2,331.6,-0.7,1.8,2470.549,13.28,0.008,104.0
2021-12-09T01:58:03,42.805,6.029,-0.009,-0.019,-0.029,99.0,100.0,99.0,13.3,1505.2,326.4,-0.7,1.8,2470.542,13.28,0.021,205.3
2021-12-09T02:04:03,42.805,6.029,0.001,-0.015,-0.032,99.0,101.0,99.0,13.4,1505.2,326.1,-0.8,1.9,2470.576,13.28,0.015,176.2
2021-12-09T02:07:03,42.805,6.029,0.017,-0.021,-0.012,100.0,98.0,99.0,13.4,1505.2,329.3,-0.8,1.8,2470.546,13.28,0.027,141.0
2021-12-09T02:10:03,42.805,6.029,-0.033,0.01,-0.019,100.0,99.0,98.0,13.4,1505.2,326.0,-0.7,1.8,2470.558,13.28,0.034,286.9
2021-12-09T02:13:03,42.805,6.029,0.017,0.002,0.013,99.0,100.0,99.0,13.3,1505.2,331.1,-0.7,1.8,2470.561,13.28,0.017,83.3
2021-12-09T02:16:03,42.805,6.029,-0.017,-0.021,-0.009,100.0,99.0,99.0,13.3,1505.2,325.0,-0.8,1.8,2470.567,13.28,0.027,219.0
2021-12-09T02:19:03,42.805,6.029,-0.004,-0.004,-0.014,100.0,99.0,99.0,13.4,1505.2,329.3,-0.8,1.9,2470.57,13.28,0.005,225.0
2021-12-09T02:22:03,42.805,6.029,-0.001,-0.007,-0.016,99.0,100.0,100.0,13.3,1505.2,326.7,-0.8,1.8,2470.572,13.28,0.007,188.1
2021-12-09T02:25:03,42.805,6.029,-0.02,-0.008,-0.025,100.0,100.0,100.0,13.4,1505.2,328.2,-0.8,1.8,2470.544,13.28,0.021,248.2
2021-12-09T02:28:03,42.805,6.029,-0.005,0.003,-0.033,99.0,100.0,100.0,13.4,1505.2,330.4,-0.7,1.8,2470.575,13.28,0.005,301.0
2021-12-09T02:31:03,42.805,6.029,0.011,-0.008,0.011,99.0,100.0,98.0,13.3,1505.2,326.6,-0.7,1.8,2470.607,13.28,0.013,126.0
2021-12-09T02:34:03,42.805,6.029,-0.005,-0.004,0.019,100.0,100.0,99.0,13.4,1505.2,331.0,-0.7,1.8,2470.602,13.28,0.006,231.3
2021-12-09T02:37:03,42.805,6.029,-0.004,0.013,0.01,99.0,100.0,100.0,13.3,1505.2,326.5,-0.7,1.8,2470.597,13.28,0.013,342.9
2021-12-09T02:40:03,42.805,6.029,-0.013,-0.003,-0.026,99.0,100.0,99.0,13.3,1505.2,327.9,-0.7,1.8,2470.586,13.28,0.013,257.0
2021-12-09T02:43:03,42.805,6.029,-0.008,-0.016,-0.037,99.0,100.0,99.0,13.3,1505.2,330.8,-0.7,1.8,2470.637,13.28,0.017,206.6
2021-12-09T02:46:03,42.805,6.029,-0.016,0.01,-0.023,98.0,101.0,99.0,13.4,1505.2,330.0,-0.8,1.8,2470.61,13.28,0.018,302.0
2021-12-09T02:49:03,42.805,6.029,-0.024,0.0,-0.009,97.0,101.0,100.0,13.3,1505.2,328.2,-0.8,1.8,2470.576,13.28,0.024,270.0
2021-12-09T02:52:03,42.805,6.029,0.004,-0.019,-0.035,99.0,100.0,99.0,13.4,1505.2,329.0,-0.7,1.8,2470.612,13.28,0.019,168.1
2021-12-09T02:55:03,42.805,6.029,-0.016,-0.01,-0.016,100.0,99.0,99.0,13.3,1505.2,327.9,-0.7,1.8,2470.545,13.28,0.018,238.0
2021-12-09T02:58:03,42.805,6.029,0.012,-0.017,-0.008,100.0,100.0,99.0,13.4,1505.2,329.1,-0.8,1.8,2470.549,13.28,0.02,144.8
2021-12-09T03:04:03,42.805,6.029,0.019,-0.005,0.012,99.0,102.0,99.0,13.4,1505.2,327.4,-0.8,1.8,2470.628,13.28,0.019,104.7
2021-12-09T03:07:03,42.805,6.029,-0.025,-0.009,-0.061,101.0,100.0,99.0,13.4,1505.2,329.2,-0.8,1.8,2470.592,13.28,0.026,250.2
2021-12-09T03:10:03,42.805,6.029,0.01,-0.009,-0.007,101.0,98.0,100.0,13.4,1505.2,327.1,-0.7,1.8,2470.598,13.28,0.013,132.0
2021-12-09T03:13:03,42.805,6.029,-0.003,-0.016,0.003,99.0,101.0,99.0,13.4,1505.2,325.2,-0.8,1.9,2470.591,13.28,0.016,190.6
2021-12-09T03:16:03,42.805,6.029,0.0,-0.002,-0.029,100.0,99.0,99.0,13.4,1505.2,326.3,-0.7,1.8,2470.609,13.28,0.002,180.0
2021-12-09T03:19:03,42.805,6.029,0.02,-0.004,0.024,98.0,101.0,99.0,13.4,1505.2,330.2,-0.8,1.8,2470.57,13.28,0.02,101.3
2021-12-09T03:22:03,42.805,6.029,-0.017,-0.011,0.002,98.0,100.0,100.0,13.4,1505.2,329.4,-0.7,1.8,2470.6,13.28,0.02,237.1
2021-12-09T03:25:03,42.805,6.029,0.01,-0.025,-0.025,97.0,99.0,101.0,13.3,1505.2,327.4,-0.7,1.8,2470.616,13.28,0.026,158.2
2021-12-09T03:28:03,42.805,6.029,-0.017,-0.024,-0.029,99.0,101.0,99.0,13.4,1505.2,328.0,-0.7,1.8,2470.604,13.28,0.029,215.3
2021-12-09T03:31:03,42.805,6.029,0.039,-0.005,0.047,101.0,101.0,98.0,13.4,1505.2,326.9,-0.8,1.8,2470.577,13.28,0.039,97.3
2021-12-09T03:34:03,42.805,6.029,0.018,0.005,0.008,100.0,101.0,99.0,13.4,1505.2,328.0,-0.7,1.8,2470.578,13.28,0.018,74.5
2021-12-09T03:37:03,42.805,6.029,0.032,-0.011,0.015,100.0,101.0,99.0,13.4,1505.2,330.3,-0.8,1.8,2470.599,13.28,0.033,109.0
2021-12-09T03:40:03,42.805,6.029,-0.005,-0.005,-0.03,101.0,99.0,100.0,13.4,1505.2,325.3,-0.7,1.8,2470.564,13.28,0.007,225.0
2021-12-09T03:43:03,42.805,6.029,0.022,-0.018,0.005,101.0,100.0,99.0,13.4,1505.2,329.3,-0.8,1.9,2470.586,13.28,0.028,129.3
2021-12-09T03:46:03,42.805,6.029,0.016,-0.022,-0.008,99.0,100.0,100.0,13.4,1505.2,330.1,-0.7,1.8,2470.598,13.28,0.027,144.0
2021-12-09T03:49:03,42.805,6.029,-0.036,0.026,0.016,100.0,101.0,99.0,13.4,1505.2,329.4,-0.7,1.8,2470.567,13.28,0.044,305.8
2021-12-09T03:52:03,42.805,6.029,0.015,-0.012,0.004,101.0,99.0,99.0,13.4,1505.2,331.4,-0.8,1.8,2470.567,13.28,0.019,128.7
2021-12-09T03:55:03,42.805,6.029,-0.001,-0.014,-0.017,99.0,100.0,100.0,13.4,1505.2,331.4,-0.7,1.8,2470.577,13.28,0.014,184.1
2021-12-09T03:58:03,42.805,6.029,0.006,0.003,0.011,99.0,100.0,99.0,13.4,1505.2,331.4,-0.8,1.8,2470.602,13.28,0.006,63.4
2021-12-09T04:04:03,42.805,6.029,-0.002,-0.018,-0.045,100.0,100.0,99.0,13.4,1505.2,327.9,-0.7,1.8,2470.636,13.28,0.018,186.3
2021-12-09T04:07:03,42.805,6.029,-0.009,-0.016,-0.035,101.0,99.0,99.0,13.3,1505.2,330.2,-0.8,1.8,2470.609,13.28,0.018,209.4
2021-12-09T04:10:03,42.805,6.029,0.008,-0.003,0.021,100.0,99.0,100.0,13.4,1505.2,331.0,-0.8,1.8,2470.597,13.28,0.008,110.6
2021-12-09T04:13:03,42.805,6.029,-0.012,-0.019,-0.021,97.0,99.0,100.0,13.3,1505.2,328.3,-0.8,1.8,2470.61,13.28,0.022,212.3
2021-12-09T04:16:03,42.805,6.029,0.008,-0.002,-0.009,99.0,99.0,100.0,13.3,1505.2,325.2,-0.8,1.8,2470.616,13.28,0.008,104.0
2021-12-09T04:19:03,42.805,6.029,0.003,-0.014,-0.002,100.0,101.0,99.0,13.4,1505.2,329.4,-0.8,1.8,2470.567,13.28,0.014,167.9
2021-12-09T04:22:03,42.805,6.029,0.01,-0.016,0.0,102.0,97.0,99.0,13.4,1505.2,327.4,-0.8,1.8,2470.567,13.28,0.018,148.0
2021-12-09T04:25:03,42.805,6.029,-0.001,0.001,-0.02,98.0,100.0,99.0,13.4,1505.2,328.2,-0.8,1.8,2470.577,13.28,0.001,315.0
2021-12-09T04:28:03,42.805,6.029,0.038,-0.016,0.026,99.0,100.0,100.0,13.4,1505.2,324.7,-0.7,1.8,2470.539,13.28,0.041,112.8
2021-12-09T04:31:03,42.805,6.029,0.003,-0.002,-0.015,100.0,100.0,99.0,13.4,1505.2,328.3,-0.7,1.8,2470.573,13.28,0.003,123.7
2021-12-09T04:34:03,42.805,6.029,0.023,-0.028,-0.037,100.0,99.0,99.0,13.4,1505.2,324.8,-0.8,1.8,2470.556,13.28,0.036,140.6
2021-12-09T04:37:03,42.805,6.029,0.0,-0.016,-0.011,100.0,99.0,99.0,13.4,1505.2,329.9,-0.7,1.8,2470.558,13.28,0.016,180.0
2021-12-09T04:40:03,42.805,6.029,0.003,-0.027,-0.038,100.0,99.0,100.0,13.4,1505.2,330.3,-0.8,1.8,2470.616,13.28,0.027,173.7
2021-12-09T04:43:03,42.805,6.029,0.012,-0.002,0.014,99.0,100.0,99.0,13.3,1505.2,328.2,-0.8,1.8,2470.546,13.28,0.012,99.5
2021-12-09T04:46:03,42.805,6.029,-0.009,-0.004,0.02,100.0,100.0,99.0,13.3,1505.2,327.1,-0.7,1.8,2470.577,13.28,0.009,246.0
2021-12-09T04:49:03,42.805,6.029,-0.005,-0.024,-0.022,98.0,100.0,99.0,13.4,1505.2,324.9,-0.7,1.8,2470.565,13.28,0.024,191.8
2021-12-09T04:52:03,42.805,6.029,-0.002,0.001,0.012,100.0,100.0,98.0,13.4,1505.2,328.0,-0.8,1.8,2470.571,13.28,0.002,296.6
2021-12-09T04:55:03,42.805,6.029,-0.007,0.0,-0.021,99.0,99.0,100.0,13.4,1505.2,326.4,-0.8,1.8,2470.591,13.28,0.007,270.0
2021-12-09T04:58:03,42.805,6.029,0.024,-0.025,0.016,100.0,100.0,99.0,13.4,1505.2,325.9,-0.8,1.8,2470.592,13.28,0.034,136.2
2021-12-09T05:04:03,42.805,6.029,0.016,-0.016,0.008,100.0,100.0,99.0,13.4,1505.2,324.7,-0.8,1.8,2470.581,13.28,0.022,135.0
2021-12-09T05:07:03,42.805,6.029,-0.004,-0.016,-0.017,99.0,103.0,99.0,13.4,1505.2,330.0,-0.8,1.8,2470.592,13.28,0.016,194.0
2021-12-09T05:10:03,42.805,6.029,0.011,-0.004,0.0,100.0,100.0,101.0,13.3,1505.2,328.1,-0.7,1.8,2470.61,13.28,0.011,110.0
2021-12-09T05:13:03,42.805,6.029,0.015,-0.033,-0.015,99.0,100.0,99.0,13.4,1505.2,326.0,-0.7,1.8,2470.595,13.28,0.036,155.6
2021-12-09T05:16:03,42.805,6.029,0.004,0.005,0.007,99.0,100.0,100.0,13.3,1505.2,326.0,-0.8,1.8,2470.603,13.28,0.006,38.7
2021-12-09T05:19:03,42.805,6.029,0.031,-0.032,-0.023,100.0,101.0,98.0,13.3,1505.2,329.0,-0.8,1.8,2470.592,13.28,0.044,135.9
2021-12-09T05:22:03,42.805,6.029,-0.013,-0.01,-0.041,99.0,101.0,99.0,13.4,1505.2,326.4,-0.8,1.8,2470.588,13.28,0.016,232.4
2021-12-09T05:25:03,42.805,6.029,0.009,-0.028,-0.024,100.0,101.0,99.0,13.4,1505.2,331.3,-0.7,1.8,2470.578,13.28,0.029,162.2
2021-12-09T05:28:03,42.805,6.029,0.02,-0.019,-0.012,100.0,100.0,99.0,13.4,1505.2,326.1,-0.8,1.8,2470.575,13.28,0.027,133.5
2021-12-09T05:31:03,42.805,6.029,0.004,-0.031,0.0,101.0,99.0,99.0,13.4,1505.2,325.1,-0.8,1.8,2470.584,13.28,0.031,172.7
2021-12-09T05:34:03,42.805,6.029,-0.008,-0.007,0.0,101.0,99.0,99.0,13.3,1505.2,331.3,-0.8,1.8,2470.584,13.28,0.01,228.8
2021-12-09T05:37:03,42.805,6.029,0.016,-0.03,-0.01,99.0,100.0,99.0,13.4,1505.2,329.7,-0.7,1.8,2470.568,13.28,0.034,151.9
2021-12-09T05:40:03,42.805,6.029,0.014,-0.029,-0.018,101.0,101.0,99.0,13.4,1505.2,327.3,-0.8,1.8,2470.584,13.28,0.032,154.2
2021-12-09T05:43:03,42.805,6.029,0.005,-0.012,-0.004,99.0,100.0,99.0,13.3,1505.2,327.9,-0.8,1.8,2470.606,13.28,0.013,157.4
2021-12-09T05:46:03,42.805,6.029,0.007,0.009,0.022,100.0,100.0,99.0,13.4,1505.2,329.4,-0.7,1.8,2470.593,13.28,0.011,37.9
2021-12-09T05:49:03,42.805,6.029,0.012,-0.024,-0.01,99.0,103.0,99.0,13.4,1505.2,330.9,-0.8,1.8,2470.602,13.28,0.026,153.4
2021-12-09T05:52:03,42.805,6.029,0.011,-0.012,-0.006,99.0,100.0,100.0,13.3,1505.2,325.3,-0.7,1.8,2470.562,13.28,0.016,137.5
2021-12-09T05:55:03,42.805,6.029,-0.003,-0.02,-0.024,100.0,101.0,100.0,13.3,1505.2,330.8,-0.7,1.8,2470.582,13.28,0.02,188.5
2021-12-09T05:58:03,42.805,6.029,-0.009,-0.015,-0.005,99.0,101.0,100.0,13.4,1505.2,328.5,-0.7,1.8,2470.613,13.28,0.017,211.0
2021-12-09T06:04:03,42.805,6.029,0.014,-0.025,-0.045,100.0,100.0,100.0,13.4,1505.2,325.5,-0.7,1.8,2470.63,13.28,0.028,150.7
2021-12-09T06:07:03,42.805,6.029,0.0,-0.015,-0.027,101.0,100.0,100.0,13.4,1505.2,331.3,-0.7,1.8,2470.579,13.28,0.015,180.0
2021-12-09T06:10:03,42.805,6.029,0.021,-0.019,-0.002,100.0,100.0,100.0,13.3,1505.2,326.8,-0.8,1.8,2470.636,13.28,0.028,132.1
2021-12-09T06:13:03,42.805,6.029,0.014,-0.003,0.005,100.0,100.0,100.0,13.3,1505.2,324.2,-0.8,1.8,2470.64,13.28,0.014,102.1
2021-12-09T06:16:03,42.805,6.029,0.003,-0.005,0.026,100.0,100.0,99.0,13.4,1505.2,330.0,-0.8,1.8,2470.592,13.28,0.005,149.0
2021-12-09T06:19:03,42.805,6.029,0.003,-0.009,0.0,100.0,100.0,99.0,13.4,1505.2,327.0,-0.8,1.8,2470.627,13.28,0.009,161.6
2021-12-09T06:22:03,42.805,6.029,0.02,-0.03,0.007,99.0,100.0,100.0,13.3,1505.2,327.1,-0.8,1.8,2470.634,13.28,0.036,146.3
2021-12-09T06:25:03,42.805,6.029,0.002,-0.028,0.019,101.0,100.0,99.0,13.4,1505.2,327.6,-0.8,1.8,2470.646,13.28,0.028,175.9
2021-12-09T06:28:03,42.805,6.029,-0.027,-0.021,-0.057,99.0,99.0,99.0,13.3,1505.2,327.5,-0.8,1.8,2470.637,13.28,0.034,232.1
2021-12-09T06:31:03,42.805,6.029,0.002,-0.007,0.004,99.0,99.0,99.0,13.4,1505.2,325.9,-0.8,1.8,2470.636,13.28,0.007,164.1
2021-12-09T06:34:03,42.805,6.029,-0.012,0.005,-0.022,99.0,100.0,100.0,13.4,1505.2,327.6,-0.7,1.8,2470.591,13.28,0.013,292.6
2021-12-09T06:37:03,42.805,6.029,0.008,-0.015,-0.03,100.0,100.0,100.0,13.4,1505.2,325.3,-0.8,1.8,2470.636,13.28,0.017,151.9
2021-12-09T06:40:03,42.805,6.029,0.013,-0.03,-0.016,101.0,101.0,100.0,13.3,1505.2,330.3,-0.7,1.8,2470.662,13.28,0.032,156.6
2021-12-09T06:43:03,42.805,6.029,-0.017,0.007,-0.012,99.0,100.0,100.0,13.4,1505.2,331.1,-0.8,1.8,2470.64,13.28,0.018,292.4
2021-12-09T06:46:03,42.805,6.029,0.012,-0.017,-0.003,100.0,101.0,99.0,13.4,1505.2,327.1,-0.7,1.8,2470.627,13.28,0.02,144.8
2021-12-09T06:49:03,42.805,6.029,-0.026,-0.015,-0.051,100.0,99.0,99.0,13.4,1505.2,331.3,-0.8,1.8,2470.632,13.28,0.03,240.0
2021-12-09T06:52:03,42.805,6.029,0.001,-0.022,-0.067,100.0,100.0,99.0,13.4,1505.2,326.6,-0.8,1.8,2470.618,13.28,0.022,177.4
2021-12-09T06:55:03,42.805,6.029,-0.022,-0.008,-0.041,99.0,100.0,99.0,13.4,1505.2,330.4,-0.7,1.8,2470.655,13.28,0.023,250.0
2021-12-09T06:58:03,42.805,6.029,0.028,-0.038,-0.015,100.0,100.0,99.0,13.4,1505.2,331.6,-0.8,1.9,2470.617,13.28,0.047,143.6
2021-12-09T07:04:03,42.805,6.029,-0.009,-0.015,-0.016,100.0,100.0,99.0,13.4,1505.2,324.8,-0.8,1.9,2470.654,13.28,0.017,211.0
2021-12-09T07:07:03,42.805,6.029,-0.032,-0.017,-0.008,101.0,101.0,100.0,13.4,1505.2,329.6,-0.8,1.8,2470.644,13.28,0.036,242.0
2021-12-09T07:10:03,42.805,6.029,-0.025,-0.001,-0.039,97.0,100.0,101.0,13.3,1505.2,327.7,-0.8,1.8,2470.674,13.28,0.025,267.7
2021-12-09T07:13:03,42.805,6.029,-0.004,-0.007,-0.015,102.0,102.0,99.0,13.4,1505.2,327.8,-0.8,1.8,2470.657,13.28,0.008,209.7
2021-12-09T07:16:03,42.805,6.029,0.001,-0.007,-0.037,101.0,99.0,100.0,13.3,1505.2,324.8,-0.7,1.8,2470.644,13.28,0.007,171.9
2021-12-09T07:19:03,42.805,6.029,0.008,-0.012,-0.011,99.0,101.0,99.0,13.4,1505.2,331.9,-0.8,1.8,2470.688,13.28,0.014,146.3
2021-12-09T07:22:03,42.805,6.029,0.006,-0.011,-0.016,100.0,99.0,99.0,13.4,1505.2,326.2,-0.8,1.8,2470.631,13.28,0.012,151.4
2021-12-09T07:25:03,42.805,6.029,0.004,-0.005,-0.017,100.0,100.0,99.0,13.4,1505.2,329.7,-0.8,1.8,2470.68,13.28,0.006,141.3
2021-12-09T07:28:03,42.805,6.029,-0.02,-0.024,-0.032,101.0,99.0,99.0,13.4,1505.2,325.0,-0.8,1.9,2470.658,13.28,0.031,219.8
2021-12-09T07:31:03,42.805,6.029,0.001,-0.022,-0.045,100.0,100.0,99.0,13.4,1505.2,327.3,-0.7,1.8,2470.662,13.28,0.022,177.4
2021-12-09T07:34:03,42.805,6.029,-0.025,-0.02,-0.046,99.0,100.0,100.0,13.3,1505.2,327.0,-0.7,1.8,2470.695,13.29,0.032,231.3
2021-12-09T07:37:03,42.805,6.029,-0.011,-0.01,-0.033,99.0,102.0,100.0,13.4,1505.2,331.9,-0.7,1.8,2470.675,13.28,0.014,227.7
2021-12-09T07:40:03,42.805,6.029,-0.013,-0.019,-0.041,100.0,99.0,99.0,13.3,1505.2,324.2,-0.8,1.8,2470.67,13.29,0.023,214.4
2021-12-09T07:43:03,42.805,6.029,-0.003,-0.022,-0.026,100.0,100.0,100.0,13.4,1505.2,329.3,-0.7,1.8,2470.702,13.29,0.022,187.8
2021-12-09T07:46:03,42.805,6.029,-0.021,-0.011,-0.031,101.0,100.0,99.0,13.4,1505.2,330.5,-0.8,1.8,2470.69,13.29,0.023,242.4
2021-12-09T07:49:03,42.805,6.029,-0.008,-0.009,-0.022,100.0,99.0,100.0,13.4,1505.2,330.8,-0.7,1.8,2470.668,13.29,0.012,221.6
2021-12-09T07:52:03,42.805,6.029,-0.015,-0.01,-0.002,99.0,101.0,100.0,13.4,1505.2,324.1,-0.8,1.8,2470.713,13.29,0.018,236.3
2021-12-09T07:55:03,42.805,6.029,-0.029,-0.028,-0.06,100.0,100.0,100.0,13.4,1505.2,327.5,-0.8,1.8,2470.667,13.29,0.04,226.0
2021-12-09T07:58:03,42.805,6.029,-0.018,0.001,-0.003,99.0,100.0,99.0,13.4,1505.2,326.5,-0.7,1.8,2470.696,13.29,0.018,273.2
2021-12-09T08:04:03,42.805,6.029,0.005,-0.016,-0.025,99.0,100.0,99.0,13.3,1505.2,326.8,-0.7,1.8,2470.757,13.28,0.016,162.6
2021-12-09T08:07:03,42.805,6.029,-0.021,0.001,-0.008,100.0,100.0,99.0,13.4,1505.2,328.5,-0.7,1.8,2470.702,13.28,0.021,272.7
2021-12-09T08:10:03,42.805,6.029,-0.008,-0.007,-0.022,100.0,100.0,100.0,13.4,1505.2,328.8,-0.8,1.8,2470.696,13.29,0.01,228.8
2021-12-09T08:13:03,42.805,6.029,0.015,0.009,0.021,101.0,99.0,101.0,13.4,1505.2,326.4,-0.7,1.8,2470.751,13.29,0.017,59.0
2021-12-09T08:16:03,42.805,6.029,0.0,0.0,0.0,100.0,99.0,100.0,13.3,1505.2,326.5,-0.8,1.9,2470.686,13.29,0.0,0.0
2021-12-09T08:19:03,42.805,6.029,-0.049,-0.01,-0.021,101.0,100.0,99.0,13.4,1505.2,324.3,-0.8,1.8,2470.707,13.29,0.05,258.5
2021-12-09T08:22:03,42.805,6.029,-0.008,0.001,-0.004,100.0,101.0,100.0,13.4,1505.2,326.7,-0.8,1.8,2470.724,13.29,0.008,277.1
2021-12-09T08:25:03,42.805,6.029,-0.017,-0.008,-0.026,99.0,101.0,100.0,13.4,1505.2,327.0,-0.7,1.8,2470.734,13.29,0.018,244.8
2021-12-09T08:28:03,42.805,6.029,-0.01,-0.002,-0.034,99.0,100.0,100.0,13.4,1505.2,328.8,-0.8,1.8,2470.72,13.29,0.01,258.7
2021-12-09T08:31:03,42.805,6.029,-0.02,-0.019,-0.024,100.0,99.0,100.0,13.4,1505.2,328.5,-0.7,1.8,2470.706,13.29,0.027,226.5
2021-12-09T08:34:03,42.805,6.029,-0.033,0.018,-0.018,100.0,101.0,100.0,13.3,1505.2,326.9,-0.7,1.8,2470.685,13.29,0.037,298.6
2021-12-09T08:37:03,42.805,6.029,-0.038,0.019,-0.014,101.0,98.0,101.0,13.4,1505.2,331.7,-0.7,1.8,2470.715,13.29,0.042,296.6
2021-12-09T08:40:03,42.805,6.029,-0.014,-0.006,-0.023,100.0,100.0,98.0,13.4,1505.2,328.2,-0.7,1.8,2470.692,13.29,0.015,246.8
2021-12-09T08:43:03,42.805,6.029,0.0,-0.014,-0.007,99.0,100.0,101.0,13.3,1505.2,326.5,-0.8,1.8,2470.737,13.29,0.014,180.0
2021-12-09T08:46:03,42.805,6.029,-0.029,0.002,-0.001,99.0,99.0,99.0,13.4,1505.2,326.8,-0.8,1.8,2470.818,13.29,0.029,273.9
2021-12-09T08:49:03,42.805,6.029,-0.026,-0.015,-0.026,98.0,100.0,100.0,13.4,1505.2,328.4,-0.7,1.8,2470.751,13.29,0.03,240.0
2021-12-09T08:52:03,42.805,6.029,-0.041,-0.001,0.0,100.0,99.0,99.0,13.4,1505.2,329.5,-0.8,1.8,2470.748,13.29,0.041,268.6
2021-12-09T08:55:03,42.805,6.029,-0.011,-0.015,-0.026,99.0,100.0,100.0,13.4,1505.2,324.4,-0.8,1.8,2470.763,13.29,0.018,216.3
2021-12-09T08:58:03,42.805,6.029,-0.027,-0.005,-0.021,101.0,101.0,99.0,13.4,1505.2,328.4,-0.8,1.8,2470.766,13.29,0.027,259.5
2021-12-09T09:04:03,42.805,6.029,-0.019,-0.019,-0.035,100.0,100.0,99.0,13.4,1505.2,326.4,-0.7,1.8,2470.815,13.29,0.026,225.0
2021-12-09T09:07:03,42.805,6.029,-0.026,0.001,-0.01,99.0,100.0,99.0,13.4,1505.2,325.3,-0.7,1.8,2470.808,13.29,0.026,272.2
2021-12-09T09:10:03,42.805,6.029,-0.003,0.002,-0.026,100.0,101.0,99.0,13.4,1505.2,331.6,-0.8,1.8,2470.812,13.29,0.003,303.7
2021-12-09T09:13:03,42.805,6.029,-0.023,0.001,-0.032,100.0,100.0,99.0,13.4,1505.2,327.8,-0.7,1.8,2470.786,13.29,0.023,272.5
2021-12-09T09:16:03,42.805,6.029,-0.021,-0.002,-0.006,100.0,105.0,99.0,13.4,1505.2,327.0,-0.8,1.8,2470.806,13.29,0.021,264.6
2021-12-09T09:19:03,42.805,6.029,-0.025,0.012,-0.001,100.0,99.0,100.0,13.4,1505.2,326.8,-0.7,1.8,2470.773,13.29,0.027,295.6
2021-12-09T09:22:03,42.805,6.029,-0.011,-0.013,-0.063,100.0,99.0,100.0,13.3,1505.2,328.8,-0.7,1.8,2470.799,13.29,0.017,220.2
